Change the Weather History Date:

Wednesday, April 3, 2013

  Actual Average Record
Temperature  
Mean Temperature 34 °F 48 °F  
Max Temperature 47 °F 58 °F 85 °F (2012)
Min Temperature 21 °F 37 °F 19 °F (1987)
Degree Days  
Heating Degree Days 31 18  
Month to date heating degree days 91 54  
Since 1 July heating degree days 5394 5139  
Cooling Degree Days 0 0  
Month to date cooling degree days 0 0  
Year to date cooling degree days 0 1  
Moisture  
Dew Point 16 °F    
Average Humidity 56    
Maximum Humidity 84    
Minimum Humidity 27    
Precipitation  
Precipitation 0.00 in 0.10 in 2.26 in (2014)
Month to date precipitation 0.00 0.30  
Year to date precipitation 7.20 6.59  
Sea Level Pressure  
Sea Level Pressure 30.38 in    
Wind  
Wind Speed 4 mph (East)    
Max Wind Speed 17 mph    
Max Gust Speed 22 mph    
Visibility 10 miles    
Events      
T = Trace of Precipitation, MM = Missing Value Source: NWS Daily Summary

Daily Weather History Graph

Daily Weather History Graph

Search for Another Location

Airport or City:

Trip Planner

Search our weather history database for the weather conditions in past years. The results will help you decide how hot, cold, wet, or windy it might be!

Date:

Astronomy

Apr. 03, 2013 Rise Set
Actual Time 7:27 AM EDT 8:14 PM EDT
Civil Twilight 7:00 AM EDT 8:42 PM EDT
Nautical Twilight 6:27 AM EDT 9:15 PM EDT
Astronomical Twilight 5:53 AM EDT 9:48 PM EDT
Moon 3:09 AM EDT (4/3) 1:25 PM EDT (4/3)
Length of Visible Light 13h 42m
Length of Day
12h 46m
Last Quarter, 45% of the Moon is Illuminated
Apr 3
Last Quarter
Apr 10
New
Apr 18
First Quarter
Apr 25
Full
May 2
Last Quarter

Hourly Weather History & Observations

Time (EDT) Temp. Windchill Dew Point Humidity Pressure Visibility Wind Dir Wind Speed Gust Speed Precip Events Conditions
12:54 AM 30.0 °F - 14.0 °F 51% 30.31 in 10.0 mi Calm Calm - N/A   Clear
1:54 AM 27.0 °F - 15.1 °F 61% 30.32 in 10.0 mi Calm Calm - N/A   Clear
2:54 AM 25.0 °F - 15.1 °F 66% 30.32 in 10.0 mi Calm Calm - N/A   Clear
3:54 AM 24.1 °F - 17.1 °F 75% 30.33 in 10.0 mi Calm Calm - N/A   Clear
4:54 AM 23.0 °F - 17.1 °F 78% 30.34 in 10.0 mi Calm Calm - N/A   Clear
5:54 AM 21.9 °F - 17.1 °F 82% 30.36 in 10.0 mi Calm Calm - N/A   Clear
6:54 AM 24.1 °F - 16.0 °F 71% 30.36 in 10.0 mi Calm Calm - N/A   Clear
7:54 AM 23.0 °F - 16.0 °F 74% 30.39 in 10.0 mi Calm Calm - N/A   Clear
8:54 AM 28.9 °F - 21.0 °F 72% 30.43 in 8.0 mi Calm Calm - N/A   Clear
9:54 AM 35.1 °F 32.2 °F 16.0 °F 46% 30.45 in 10.0 mi ENE 3.5 mph - N/A   Clear
10:54 AM 37.9 °F 32.7 °F 12.9 °F 36% 30.46 in 10.0 mi East 6.9 mph - N/A   Clear
11:54 AM 39.0 °F 36.8 °F 12.0 °F 33% 30.45 in 10.0 mi North 3.5 mph - N/A   Clear
12:54 PM 42.1 °F 40.2 °F 14.0 °F 32% 30.44 in 10.0 mi Variable 3.5 mph - N/A   Clear
1:54 PM 44.1 °F 36.8 °F 14.0 °F 30% 30.43 in 10.0 mi NNE 16.1 mph 20.7 mph N/A   Clear
2:54 PM 45.0 °F 38.9 °F 12.9 °F 27% 30.40 in 10.0 mi NE 12.7 mph 17.3 mph N/A   Clear
3:54 PM 45.0 °F 41.2 °F 15.1 °F 30% 30.38 in 10.0 mi ESE 6.9 mph 16.1 mph N/A   Clear
4:54 PM 46.0 °F 41.0 °F 16.0 °F 30% 30.38 in 10.0 mi ESE 10.4 mph - N/A   Clear
5:54 PM 46.9 °F - 17.1 °F 30% 30.37 in 10.0 mi ESE 9.2 mph - N/A   Clear
6:54 PM 46.0 °F 43.9 °F 17.1 °F 31% 30.37 in 10.0 mi SE 4.6 mph - N/A   Clear
7:54 PM 42.1 °F 39.2 °F 17.1 °F 37% 30.35 in 10.0 mi ESE 4.6 mph - N/A   Clear
8:54 PM 41.0 °F 39.0 °F 16.0 °F 36% 30.35 in 10.0 mi SE 3.5 mph - N/A   Clear
9:54 PM 37.9 °F 35.5 °F 18.0 °F 45% 30.34 in 10.0 mi NE 3.5 mph - N/A   Clear
10:54 PM 34.0 °F - 19.0 °F 54% 30.35 in 10.0 mi Calm Calm - N/A   Clear
11:54 PM 33.1 °F - 19.0 °F 56% 30.35 in 10.0 mi Calm Calm - N/A   Clear